SCP
1 0 1 1 1 1 1 1 1 0 0 0 0 0 1 1 1 1 0 0 0 0 0 0 0 0 0 0 0 0 0 0 0 0 0 0 0 0 0 0 0 0 0
0 0 0 1 0 0 0 0 0 1 1 1 1 0 0 0 1 1 1 1 1 0 0 0 0 0 0 0 0 0 0 0 0 0 0 0 0 0 0 0 0 0 0
0 0 0 0 0 0 0 0 0 0 0 0 0 0 0 0 0 0 1 1 1 1 0 0 0 0 0 0 0 0 0 0 0 0 0 0 0 0 0 0 0 0 0
0 0 0 0 0 0 0 0 0 0 0 0 0 0 0 0 0 0 0 0 0 0 0 0 1 1 0 0 0 0 0 0 0 0 0 0 0 0 0 0 0 0 0
0 0 0 0 0 0 0 0 0 0 0 0 0 0 0 0 0 0 0 0 0 0 0 0 0 0 0 0 0 0 0 0 0 0 0 1 1 0 0 0 0 0 0
0 0 0 0 0 0 0 0 0 0 0 0 0 0 0 0 0 0 0 0 0 0 0 0 0 0 0 0 0 0 0 0 0 0 0 0 0 0 0 0 0 0 0
0 0 0 0 0 0 0 0 0 0 0 0 0 0 0 0 0 0 0 0 0 0 0 0 0 0 0 0 0 0 0 0 0 0 0 0 0 0 0 0 1 0 0
0 0 0 0 0 0 0 0 0 0 0 0 0 0 0 0 0 0 0 0 0 0 0 0 0 0 0 0 0 0 0 0 0 0 0 0 0 0 0 0 -0 0 0
0 0 0 0 0 0 0 0 0 0 0 0 0 0 0 0 0 0 0 0 0 0 0 0 0 0 0 0 0 0 0 0 0 0 0 0 0 0 0 0 -0 0 0
0 0 0 0 0 0 0 0 0 0 0 0 0 0 0 0 0 0 0 0 0 0 0 0 0 0 0 0 0 0 0 0 0 0 0 0 0 0 0 0 0 0 0
0 0 0 0 0 0 0 0 0 0 0 0 0 0 0 0 0 0 0 0 0 0 0 0 0 0 0 0 0 0 0 0 0 0 0 0 0 0 0 0 0 0 0
0 0 0 0 0 0 0 0 0 0 0 0 0 0 0 0 0 0 0 0 0 0 0 0 0 0 0 0 0 0 0 0 0 0 0 0 0 0 1 0 0 0 0
0 0 0 0 0 0 0 0 0 0 0 0 0 0 0 0 0 0 0 0 0 0 0 0 0 0 0 0 0 0 0 0 0 0 0 0 0 0 0 0 0 1 0
0 0 0 0 0 0 0 0 0 0 -0 -0 -0 -0 -0 0 0 0 0 0 0 0 0 0 0 0 0 0 0 0 0 0 0 0 0 0 0 0 0 0 0 0 0
0 0 0 0 0 0 0 -0 0 0 0 0 -0 -0 -0 -0 -0 -0 0 0 0 0 0 0 0 0 0 0 0 0 0 0 0 0 0 0 0 0 0 0 0 0 0
0 0 0 0 0 0 0 0 0 0 0 0 -0 -0 -0 -0 -0 -0 -0 -0 0 0 0 0 0 0 0 0 0 0 0 0 0 0 0 0 0 0 0 0 0 0 0
0 0 0 0 0 0 0 0 0 0 0 0 0 -0 -0 -0 -0 -0 -0 -0 -0 0 0 0 0 0 0 0 0 0 0 0 0 0 0 0 0 0 0 0 0 0 0
0 0 0 0 0 0 0 0 0 0 0 0 0 0 0 -0 -0 -0 -0 -0 -0 0 0 0 0 0 0 0 0 0 0 0 0 0 0 0 0 0 0 0 0 0 0
0 0 0 0 0 0 0 0 0 0 0 0 0 0 0 0 0 -0 -0 -0 -0 -0 -0 0 0 0 0 0 0 0 0 0 0 0 0 0 0 0 0 0 0 0 0
0 0 0 0 0 0 0 0 0 0 0 0 0 0 0 0 0 0 -0 -0 -0 -0 -0 -0 -0 -0 0 0 0 0 0 0 0 0 0 0 0 0 0 0 0 0 0
0 0 0 0 0 0 0 0 0 0 0 0 0 0 0 0 0 0 0 0 -0 -0 -0 -0 -0 -0 -0 -0 0 0 0 0 0 0 0 0 0 0 0 0 0 0 0
0 0 0 0 0 0 0 0 0 0 0 0 0 0 0 0 0 0 0 0 0 0 0 0 -0 -0 -0 -0 0 0 0 0 0 0 0 0 0 0 0 0 0 0 0
0 0 0 0 0 0 0 0 0 0 0 0 0 0 0 0 0 0 -0 -0 0 0 0 0 0 0 -0 -0 -0 -0 -0 0 0 0 0 0 0 0 0 0 0 0 0
0 0 0 0 0 0 0 0 0 0 0 0 0 0 0 0 0 0 0 0 -0 -0 0 0 0 0 0 0 -0 -0 -0 -0 -0 0 0 0 0 0 0 0 0 0 0
0 0 0 0 0 0 0 0 0 0 0 0 0 0 0 0 0 0 0 0 -0 -0 -0 -0 0 0 0 0 0 -0 -0 -0 -0 -0 -0 0 0 0 0 0 0 0 0
0 0 0 0 0 0 0 0 0 0 0 0 0 0 0 0 0 0 0 0 -0 0 -0 0 -0 -0 0 0 -0 -0 -0 -0 -0 -0 -0 -0 -0 0 0 0 0 0 0
Wind_Speed_500mb
15 12 6 14 11 9 11 10 17 22 26 27 29 33 36 32 27 28 28 31 30 32 34 36 43 49 55 54 51 50 52 48 57 67 53 50 56 46 38 52 34 28 39
6 11 13 12 16 16 21 22 24 27 24 23 25 29 35 36 33 34 34 28 28 26 31 35 37 39 45 49 52 53 56 54 58 71 59 44 49 47 43 41 54 49 55
21 23 23 22 28 32 38 39 41 42 39 40 41 41 41 40 41 40 35 38 36 34 35 34 31 26 31 38 44 49 48 47 44 63 69 53 41 33 40 32 39 54 52
25 24 26 28 31 35 40 42 44 44 46 50 50 49 48 49 51 48 47 45 48 50 44 41 38 31 32 34 38 43 51 55 49 50 60 54 46 35 36 39 44 37 40
24 26 29 33 37 40 42 42 43 43 43 46 48 48 48 49 46 43 47 48 39 34 40 47 47 43 41 41 43 45 47 51 58 52 52 46 46 39 37 39 46 46 49
32 32 33 32 31 34 35 36 39 40 40 43 48 51 53 50 46 46 50 54 56 55 44 40 41 45 44 42 41 43 43 46 54 54 53 55 51 49 53 39 42 38 52
29 34 40 39 37 34 33 32 38 42 43 41 39 42 45 52 57 56 51 49 51 53 56 52 47 43 42 42 42 44 45 44 46 52 64 67 62 55 56 57 54 44 43
37 36 37 32 33 34 35 34 37 39 42 44 49 51 44 42 45 53 61 50 47 48 49 50 52 55 49 47 47 50 47 43 38 40 46 50 51 46 40 55 43 35 38
32 28 29 31 32 32 32 34 36 40 45 44 46 50 51 40 38 48 40 36 36 38 37 44 46 55 61 56 57 55 53 51 41 38 31 29 29 55 47 47 54 51 49
29 27 26 28 30 30 35 35 34 38 44 40 42 46 51 32 35 42 30 27 36 40 45 45 44 47 56 59 59 56 56 51 43 43 39 33 31 36 39 41 48 52 51
25 36 37 31 34 27 32 34 37 41 47 50 46 41 45 35 27 30 34 31 29 33 37 42 39 35 35 52 46 55 63 55 49 42 41 44 43 42 40 44 53 58 59
26 25 31 35 39 49 33 37 38 52 56 60 61 56 43 39 36 36 39 37 38 39 38 38 39 35 42 50 50 54 41 42 54 54 50 47 50 50 48 44 48 53 54
22 25 28 23 29 38 38 36 38 51 51 59 67 72 65 49 43 43 39 39 35 35 38 45 47 39 39 43 42 46 50 55 65 52 58 65 56 51 54 55 50 53 64
28 25 32 34 18 29 28 38 34 42 60 55 62 65 69 73 72 66 51 45 43 42 41 38 39 41 41 42 42 42 40 41 51 64 68 71 73 74 73 68 63 61 67
19 30 37 41 44 47 52 54 48 39 45 60 66 66 70 68 72 76 69 51 45 49 47 37 30 27 27 30 32 32 36 39 44 51 54 61 72 79 81 73 65 65 67
15 22 36 35 40 42 50 51 47 42 40 42 55 62 67 69 67 64 72 56 45 38 34 28 22 22 25 30 33 45 39 43 47 42 49 54 57 66 75 77 72 70 71
24 16 40 25 35 36 45 45 55 41 38 44 49 50 57 64 67 75 65 60 64 48 38 34 34 31 28 32 29 28 22 28 29 33 38 46 49 55 64 60 56 63 67
22 26 34 31 31 29 35 37 39 40 39 44 52 43 48 56 57 66 74 68 60 63 70 68 49 39 36 33 33 33 28 29 25 24 34 39 39 46 51 57 62 69 70
24 28 29 26 31 34 31 32 35 38 37 41 45 39 46 53 49 51 64 72 70 64 58 56 59 61 49 43 47 35 28 26 27 31 25 14 22 29 35 44 50 56 52
13 19 25 20 34 33 31 35 32 28 43 39 41 42 47 51 52 45 55 57 62 65 56 55 55 52 50 52 55 49 42 36 30 27 27 31 33 32 31 34 40 40 48
20 23 23 24 29 36 30 37 29 31 37 33 36 38 39 44 49 43 52 49 53 59 55 53 51 54 58 51 54 53 54 49 40 34 31 28 23 22 24 32 20 30 27
26 35 40 27 26 36 43 39 33 34 31 35 35 34 35 43 38 42 43 41 54 53 50 48 53 50 49 49 53 57 57 54 54 47 38 34 32 27 23 19 19 25 25
25 34 33 35 28 41 48 34 30 33 32 40 31 29 39 41 33 39 39 39 44 47 44 46 50 48 51 48 47 53 60 58 56 53 50 41 36 32 28 22 18 17 15
24 27 28 39 45 48 57 33 27 24 38 35 28 32 41 35 30 39 35 38 49 45 40 43 47 44 45 50 49 51 60 55 53 50 47 45 41 36 28 24 25 28 27
18 28 31 35 40 46 43 38 40 31 25 33 34 35 39 24 32 38 43 47 55 45 40 42 35 37 42 44 46 55 58 53 48 47 47 43 43 36 23 26 33 33 30
30 32 41 35 38 41 48 33 35 33 29 37 27 28 29 31 32 36 39 54 58 55 51 44 44 46 46 50 57 60 56 49 46 43 43 41 38 38 35 36 38 40 39
Wind_Direction_500mb
165 177 181 200 216 201 260 256 281 292 296 301 304 302 301 306 313 315 309 301 290 282 282 268 268 269 269 267 266 261 257 258 260 265 268 265 265 270 272 259 242 235 237
215 256 258 246 257 259 267 263 269 263 266 272 283 285 289 293 297 299 301 302 310 304 294 284 274 269 269 269 268 266 264 262 259 255 263 272 272 272 274 266 250 253 247
300 298 289 286 291 292 295 294 292 291 290 284 282 274 274 277 281 280 283 292 290 294 293 290 290 291 280 278 274 267 265 269 265 255 263 265 265 267 260 260 246 256 261
315 313 314 319 317 313 310 310 308 304 297 291 288 284 281 275 273 276 280 283 286 284 281 283 284 282 301 305 291 278 267 266 264 262 266 260 252 258 245 255 255 269 268
327 327 326 318 315 313 310 310 308 306 304 298 297 293 287 282 280 278 271 267 271 290 277 274 274 273 290 297 298 280 276 270 264 265 260 254 244 242 240 253 254 264 269
322 329 330 333 334 325 321 322 320 321 316 309 304 298 292 289 282 276 273 271 264 271 271 272 277 277 278 282 288 278 279 274 262 257 252 243 241 245 251 271 258 259 276
334 330 327 329 333 332 334 342 346 343 337 333 329 320 309 296 287 279 275 276 276 271 272 267 264 267 276 274 279 283 285 278 262 261 251 249 251 251 246 242 258 261 269
323 325 329 340 349 354 353 346 340 341 344 345 346 341 324 318 318 296 279 274 278 278 280 279 270 266 264 269 273 279 280 272 262 258 258 260 248 214 247 253 264 268 263
328 340 1 356 345 340 341 343 346 343 346 351 352 351 346 343 349 347 317 278 289 285 292 290 280 267 266 264 266 272 274 270 268 266 264 268 241 225 248 243 251 268 267
4 360 351 346 356 357 348 346 345 343 340 344 348 356 360 347 357 345 344 310 305 298 295 296 291 277 265 261 259 261 264 267 270 271 267 257 247 237 239 246 246 254 260
18 23 17 18 2 360 8 9 3 1 354 353 350 359 0 352 338 341 347 336 325 314 304 303 304 291 284 261 265 260 254 261 259 264 261 259 256 251 246 246 249 249 254
27 19 9 12 12 6 16 10 17 17 21 16 10 4 359 351 341 329 324 318 315 312 305 305 299 290 277 273 270 267 268 259 256 255 258 250 250 254 260 263 269 268 264
42 26 356 5 16 5 10 14 16 12 19 18 15 14 12 2 341 330 323 324 321 314 302 291 290 295 286 276 277 270 263 256 257 258 254 252 247 248 259 263 271 278 268
34 12 353 9 2 360 357 359 356 5 13 11 9 8 11 14 11 1 341 331 328 319 315 297 289 290 289 290 289 285 284 272 267 262 259 258 262 263 263 264 270 273 268
36 12 19 8 11 15 22 21 19 17 10 16 23 18 11 6 9 7 360 344 330 325 325 317 311 310 314 312 304 292 291 286 278 267 266 260 258 259 261 264 264 266 268
18 348 13 356 345 355 3 3 9 0 0 357 4 5 15 14 9 5 12 6 345 331 332 332 320 323 315 314 310 314 290 284 276 277 274 270 268 262 258 260 262 262 263
19 35 3 16 1 3 2 358 353 359 354 346 347 352 2 5 7 12 9 16 26 16 3 354 345 338 327 322 326 331 350 298 295 286 282 272 272 270 270 264 264 258 260
37 21 20 18 17 5 355 357 357 354 355 358 351 342 360 4 1 8 12 13 19 25 30 26 13 1 355 351 336 334 321 332 320 310 302 280 285 277 271 264 263 261 260
33 17 22 22 5 356 15 9 2 1 360 355 355 356 1 2 360 360 9 12 17 18 17 24 25 23 24 23 15 4 347 326 304 308 317 305 291 303 285 276 270 265 265
34 356 11 5 10 13 9 5 5 355 358 2 359 360 2 0 358 356 6 6 8 13 13 15 13 14 14 15 15 17 20 15 360 336 317 310 288 284 290 288 276 277 270
349 352 337 332 352 3 357 2 357 346 358 358 357 352 350 352 358 8 1 4 5 2 3 6 7 9 9 9 14 11 11 15 10 359 355 348 335 300 282 280 309 279 285
354 357 356 344 344 353 349 345 351 347 356 353 353 352 349 360 2 358 358 1 357 353 351 353 359 357 359 359 4 6 6 5 4 1 0 353 353 354 342 336 304 295 287
339 346 346 347 354 333 338 333 345 345 352 353 352 349 346 355 351 350 356 353 354 354 352 352 348 350 356 350 348 353 355 354 355 354 355 352 350 347 351 351 345 341 328
348 345 331 340 334 346 347 325 310 332 323 341 344 340 350 357 348 347 354 339 343 345 353 345 349 347 346 344 343 341 341 340 342 347 347 352 351 345 338 342 346 325 317
337 316 334 324 341 341 345 341 318 339 319 337 330 327 340 340 333 339 340 340 347 345 336 336 345 341 343 342 337 327 329 330 331 335 341 342 348 348 339 345 334 339 335
322 325 320 329 329 332 342 336 340 324 314 345 309 314 332 320 326 330 331 344 351 350 347 347 340 335 328 321 314 316 319 323 324 323 331 337 341 347 357 351 343 332 328
Wind_Speed_850mb
15 12 6 14 11 9 11 10 17 22 26 27 29 33 36 32 27 28 28 31 30 32 34 36 43 49 55 54 51 50 52 48 57 67 53 50 56 46 38 52 34 28 39
6 11 13 12 16 16 21 22 24 27 24 23 25 29 35 36 33 34 34 28 28 26 31 35 37 39 45 49 52 53 56 54 58 71 59 44 49 47 43 41 54 49 55
21 23 23 22 28 32 38 39 41 42 39 40 41 41 41 40 41 40 35 38 36 34 35 34 31 26 31 38 44 49 48 47 44 63 69 53 41 33 40 32 39 54 52
25 24 26 28 31 35 40 42 44 44 46 50 50 49 48 49 51 48 47 45 48 50 44 41 38 31 32 34 38 43 51 55 49 50 60 54 46 35 36 39 44 37 40
24 26 29 33 37 40 42 42 43 43 43 46 48 48 48 49 46 43 47 48 39 34 40 47 47 43 41 41 43 45 47 51 58 52 52 46 46 39 37 39 46 46 49
32 32 33 32 31 34 35 36 39 40 40 43 48 51 53 50 46 46 50 54 56 55 44 40 41 45 44 42 41 43 43 46 54 54 53 55 51 49 53 39 42 38 52
29 34 40 39 37 34 33 32 38 42 43 41 39 42 45 52 57 56 51 49 51 53 56 52 47 43 42 42 42 44 45 44 46 52 64 67 62 55 56 57 54 44 43
37 36 37 32 33 34 35 34 37 39 42 44 49 51 44 42 45 53 61 50 47 48 49 50 52 55 49 47 47 50 47 43 38 40 46 50 51 46 40 55 43 35 38
32 28 29 31 32 32 32 34 36 40 45 44 46 50 51 40 38 48 40 36 36 38 37 44 46 55 61 56 57 55 53 51 41 38 31 29 29 55 47 47 54 51 49
29 27 26 28 30 30 35 35 34 38 44 40 42 46 51 32 35 42 30 27 36 40 45 45 44 47 56 59 59 56 56 51 43 43 39 33 31 36 39 41 48 52 51
25 36 37 31 34 27 32 34 37 41 47 50 46 41 45 35 27 30 34 31 29 33 37 42 39 35 35 52 46 55 63 55 49 42 41 44 43 42 40 44 53 58 59
26 25 31 35 39 49 33 37 38 52 56 60 61 56 43 39 36 36 39 37 38 39 38 38 39 35 42 50 50 54 41 42 54 54 50 47 50 50 48 44 48 53 54
22 25 28 23 29 38 38 36 38 51 51 59 67 72 65 49 43 43 39 39 35 35 38 45 47 39 39 43 42 46 50 55 65 52 58 65 56 51 54 55 50 53 64
28 25 32 34 18 29 28 38 34 42 60 55 62 65 69 73 72 66 51 45 43 42 41 38 39 41 41 42 42 42 40 41 51 64 68 71 73 74 73 68 63 61 67
19 30 37 41 44 47 52 54 48 39 45 60 66 66 70 68 72 76 69 51 45 49 47 37 30 27 27 30 32 32 36 39 44 51 54 61 72 79 81 73 65 65 67
15 22 36 35 40 42 50 51 47 42 40 42 55 62 67 69 67 64 72 56 45 38 34 28 22 22 25 30 33 45 39 43 47 42 49 54 57 66 75 77 72 70 71
24 16 40 25 35 36 45 45 55 41 38 44 49 50 57 64 67 75 65 60 64 48 38 34 34 31 28 32 29 28 22 28 29 33 38 46 49 55 64 60 56 63 67
22 26 34 31 31 29 35 37 39 40 39 44 52 43 48 56 57 66 74 68 60 63 70 68 49 39 36 33 33 33 28 29 25 24 34 39 39 46 51 57 62 69 70
24 28 29 26 31 34 31 32 35 38 37 41 45 39 46 53 49 51 64 72 70 64 58 56 59 61 49 43 47 35 28 26 27 31 25 14 22 29 35 44 50 56 52
13 19 25 20 34 33 31 35 32 28 43 39 41 42 47 51 52 45 55 57 62 65 56 55 55 52 50 52 55 49 42 36 30 27 27 31 33 32 31 34 40 40 48
20 23 23 24 29 36 30 37 29 31 37 33 36 38 39 44 49 43 52 49 53 59 55 53 51 54 58 51 54 53 54 49 40 34 31 28 23 22 24 32 20 30 27
26 35 40 27 26 36 43 39 33 34 31 35 35 34 35 43 38 42 43 41 54 53 50 48 53 50 49 49 53 57 57 54 54 47 38 34 32 27 23 19 19 25 25
25 34 33 35 28 41 48 34 30 33 32 40 31 29 39 41 33 39 39 39 44 47 44 46 50 48 51 48 47 53 60 58 56 53 50 41 36 32 28 22 18 17 15
24 27 28 39 45 48 57 33 27 24 38 35 28 32 41 35 30 39 35 38 49 45 40 43 47 44 45 50 49 51 60 55 53 50 47 45 41 36 28 24 25 28 27
18 28 31 35 40 46 43 38 40 31 25 33 34 35 39 24 32 38 43 47 55 45 40 42 35 37 42 44 46 55 58 53 48 47 47 43 43 36 23 26 33 33 30
30 32 41 35 38 41 48 33 35 33 29 37 27 28 29 31 32 36 39 54 58 55 51 44 44 46 46 50 57 60 56 49 46 43 43 41 38 38 35 36 38 40 39
Wind_Direction_850mb
165 177 181 200 216 201 260 256 281 292 296 301 304 302 301 306 313 315 309 301 290 282 282 268 268 269 269 267 266 261 257 258 260 265 268 265 265 270 272 259 242 235 237
215 256 258 246 257 259 267 263 269 263 266 272 283 285 289 293 297 299 301 302 310 304 294 284 274 269 269 269 268 266 264 262 259 255 263 272 272 272 274 266 250 253 247
300 298 289 286 291 292 295 294 292 291 290 284 282 274 274 277 281 280 283 292 290 294 293 290 290 291 280 278 274 267 265 269 265 255 263 265 265 267 260 260 246 256 261
315 313 314 319 317 313 310 310 308 304 297 291 288 284 281 275 273 276 280 283 286 284 281 283 284 282 301 305 291 278 267 266 264 262 266 260 252 258 245 255 255 269 268
327 327 326 318 315 313 310 310 308 306 304 298 297 293 287 282 280 278 271 267 271 290 277 274 274 273 290 297 298 280 276 270 264 265 260 254 244 242 240 253 254 264 269
322 329 330 333 334 325 321 322 320 321 316 309 304 298 292 289 282 276 273 271 264 271 271 272 277 277 278 282 288 278 279 274 262 257 252 243 241 245 251 271 258 259 276
334 330 327 329 333 332 334 342 346 343 337 333 329 320 309 296 287 279 275 276 276 271 272 267 264 267 276 274 279 283 285 278 262 261 251 249 251 251 246 242 258 261 269
323 325 329 340 349 354 353 346 340 341 344 345 346 341 324 318 318 296 279 274 278 278 280 279 270 266 264 269 273 279 280 272 262 258 258 260 248 214 247 253 264 268 263
328 340 1 356 345 340 341 343 346 343 346 351 352 351 346 343 349 347 317 278 289 285 292 290 280 267 266 264 266 272 274 270 268 266 264 268 241 225 248 243 251 268 267
4 360 351 346 356 357 348 346 345 343 340 344 348 356 360 347 357 345 344 310 305 298 295 296 291 277 265 261 259 261 264 267 270 271 267 257 247 237 239 246 246 254 260
18 23 17 18 2 360 8 9 3 1 354 353 350 359 0 352 338 341 347 336 325 314 304 303 304 291 284 261 265 260 254 261 259 264 261 259 256 251 246 246 249 249 254
27 19 9 12 12 6 16 10 17 17 21 16 10 4 359 351 341 329 324 318 315 312 305 305 299 290 277 273 270 267 268 259 256 255 258 250 250 254 260 263 269 268 264
42 26 356 5 16 5 10 14 16 12 19 18 15 14 12 2 341 330 323 324 321 314 302 291 290 295 286 276 277 270 263 256 257 258 254 252 247 248 259 263 271 278 268
34 12 353 9 2 360 357 359 356 5 13 11 9 8 11 14 11 1 341 331 328 319 315 297 289 290 289 290 289 285 284 272 267 262 259 258 262 263 263 264 270 273 268
36 12 19 8 11 15 22 21 19 17 10 16 23 18 11 6 9 7 360 344 330 325 325 317 311 310 314 312 304 292 291 286 278 267 266 260 258 259 261 264 264 266 268
18 348 13 356 345 355 3 3 9 0 0 357 4 5 15 14 9 5 12 6 345 331 332 332 320 323 315 314 310 314 290 284 276 277 274 270 268 262 258 260 262 262 263
19 35 3 16 1 3 2 358 353 359 354 346 347 352 2 5 7 12 9 16 26 16 3 354 345 338 327 322 326 331 350 298 295 286 282 272 272 270 270 264 264 258 260
37 21 20 18 17 5 355 357 357 354 355 358 351 342 360 4 1 8 12 13 19 25 30 26 13 1 355 351 336 334 321 332 320 310 302 280 285 277 271 264 263 261 260
33 17 22 22 5 356 15 9 2 1 360 355 355 356 1 2 360 360 9 12 17 18 17 24 25 23 24 23 15 4 347 326 304 308 317 305 291 303 285 276 270 265 265
34 356 11 5 10 13 9 5 5 355 358 2 359 360 2 0 358 356 6 6 8 13 13 15 13 14 14 15 15 17 20 15 360 336 317 310 288 284 290 288 276 277 270
349 352 337 332 352 3 357 2 357 346 358 358 357 352 350 352 358 8 1 4 5 2 3 6 7 9 9 9 14 11 11 15 10 359 355 348 335 300 282 280 309 279 285
354 357 356 344 344 353 349 345 351 347 356 353 353 352 349 360 2 358 358 1 357 353 351 353 359 357 359 359 4 6 6 5 4 1 0 353 353 354 342 336 304 295 287
339 346 346 347 354 333 338 333 345 345 352 353 352 349 346 355 351 350 356 353 354 354 352 352 348 350 356 350 348 353 355 354 355 354 355 352 350 347 351 351 345 341 328
348 345 331 340 334 346 347 325 310 332 323 341 344 340 350 357 348 347 354 339 343 345 353 345 349 347 346 344 343 341 341 340 342 347 347 352 351 345 338 342 346 325 317
337 316 334 324 341 341 345 341 318 339 319 337 330 327 340 340 333 339 340 340 347 345 336 336 345 341 343 342 337 327 329 330 331 335 341 342 348 348 339 345 334 339 335
322 325 320 329 329 332 342 336 340 324 314 345 309 314 332 320 326 330 331 344 351 350 347 347 340 335 328 321 314 316 319 323 324 323 331 337 341 347 357 351 343 332 328